GTI1019 ETAR-OPIS

Flight info

Callsign GTI1019
Flight time N/A
Altitude 37000
Route RINEX Z12 SULUS Z650 VEMUT DCT ODNEM DCT LITKU DCT BUDOP DCT ETUXA DCT DINRO DCT UDROS DCT KARDE DCT ROLIN N644 TETRO DCT BARAD M747 SUBUT T923 ERLEV M11 RODAR A909 BABUM DCT ABEKO DCT BUROT DCT NINOP DCT SERGO DCT KODAD DCT HANGU DCT NONIB DCT KALMI
Aircraft B38M/M-SDE1FGHILORVWXY/HB1

Departure

Time 2026-04-24 23:26
Airport Ramstein Air Base (ETAR)

Arrival

Time N/A
Airport Islamabad International Airport (OPIS)
Time Latitude Longitude Altitude Speed Heading
2026-04-24 23:24 49.43263 7.57960 761 ft 0 kts 85°
2026-04-24 23:25 49.43265 7.58012 761 ft 23 kts 85°
2026-04-24 23:25 49.43317 7.58595 765 ft 84 kts 82°
2026-04-24 23:25 49.43425 7.59788 766 ft 135 kts 82°
2026-04-24 23:26 49.43566 7.61449 806 ft 171 kts 82°
2026-04-24 23:26 49.43766 7.63295 1287 ft 175 kts 78°
2026-04-24 23:26 49.43939 7.65228 1902 ft 178 kts 86°
2026-04-24 23:26 49.43930 7.67137 2384 ft 185 kts 83°
2026-04-24 23:27 49.44411 7.68971 2591 ft 199 kts 44°
2026-04-24 23:27 49.46159 7.70159 3025 ft 219 kts 13°
2026-04-24 23:27 49.47217 7.70504 3283 ft 227 kts 16°
2026-04-24 23:27 49.48575 7.71522 3701 ft 235 kts 44°
2026-04-24 23:28 49.49534 7.73565 4204 ft 244 kts 61°
2026-04-24 23:28 49.50321 7.75971 4573 ft 260 kts 62°
2026-04-24 23:28 49.51149 7.78445 5193 ft 263 kts 61°
2026-04-24 23:28 49.52022 7.80906 5779 ft 268 kts 59°
2026-04-24 23:29 49.52924 7.83381 6364 ft 272 kts 59°
2026-04-24 23:29 49.53854 7.85910 6945 ft 276 kts 59°
2026-04-24 23:29 49.54805 7.88497 7572 ft 278 kts 59°
2026-04-24 23:29 49.55749 7.91073 8120 ft 281 kts 59°
2026-04-24 23:30 49.56708 7.93727 8700 ft 285 kts 62°
2026-04-24 23:30 49.57442 7.96572 9274 ft 290 kts 77°
2026-04-24 23:30 49.57507 7.99680 9860 ft 294 kts 100°
2026-04-24 23:30 49.56883 8.02519 10357 ft 300 kts 116°
2026-04-24 23:31 49.55718 8.05279 10575 ft 316 kts 132°
2026-04-24 23:31 49.53907 8.07393 10795 ft 330 kts 157°
2026-04-24 23:31 49.51669 8.08262 11255 ft 335 kts 174°
2026-04-24 23:31 49.49330 8.08524 11811 ft 337 kts 179°
2026-04-24 23:32 49.46979 8.08846 12274 ft 343 kts 165°
2026-04-24 23:32 49.44889 8.10502 12835 ft 345 kts 138°
2026-04-24 23:32 49.43453 8.13424 13300 ft 349 kts 114°
2026-04-24 23:32 49.42692 8.16958 13811 ft 351 kts 101°
2026-04-24 23:33 49.42236 8.20634 14305 ft 354 kts 101°
2026-04-24 23:33 49.41665 8.24346 14765 ft 357 kts 105°
2026-04-24 23:33 49.40945 8.27985 15255 ft 360 kts 108°
2026-04-24 23:33 49.40147 8.31591 15722 ft 363 kts 109°
2026-04-24 23:34 49.39308 8.35244 16195 ft 365 kts 109°
2026-04-24 23:34 49.38458 8.38941 16628 ft 369 kts 109°
2026-04-24 23:34 49.37611 8.42650 17087 ft 371 kts 109°
2026-04-24 23:34 49.36763 8.46401 17509 ft 374 kts 109°
2026-04-24 23:35 49.35915 8.50171 17958 ft 377 kts 109°
2026-04-24 23:35 49.35065 8.53955 18393 ft 379 kts 109°
2026-04-24 23:35 49.34226 8.57780 18843 ft 382 kts 107°
2026-04-24 23:35 49.33687 8.61740 19229 ft 386 kts 94°
2026-04-24 23:36 49.33752 8.65889 19647 ft 388 kts 82°
2026-04-24 23:36 49.34351 8.69895 20045 ft 389 kts 70°
2026-04-24 23:36 49.35429 8.73649 20401 ft 391 kts 59°
2026-04-24 23:36 49.36837 8.77216 20796 ft 392 kts 56°
2026-04-24 23:37 49.38327 8.80688 21159 ft 394 kts 55°
2026-04-24 23:37 49.39827 8.84241 21532 ft 397 kts 56°
2026-04-24 23:37 49.42719 8.91628 22246 ft 402 kts 58°
2026-04-24 23:38 49.44053 8.95413 22583 ft 405 kts 63°
2026-04-24 23:38 49.45067 8.99539 22926 ft 409 kts 74°
2026-04-24 23:38 49.45576 9.03855 23279 ft 412 kts 84°
2026-04-24 23:38 49.45727 9.08270 23566 ft 415 kts 89°
2026-04-24 23:39 49.45715 9.12789 23930 ft 417 kts 90°
2026-04-24 23:39 49.45660 9.17215 24191 ft 420 kts 90°
2026-04-24 23:39 49.45597 9.21726 24539 ft 421 kts 91°
2026-04-24 23:39 49.45523 9.26197 24822 ft 424 kts 89°
2026-04-24 23:40 49.45690 9.30733 25133 ft 425 kts 80°
2026-04-24 23:40 49.46337 9.35149 25405 ft 426 kts 70°
2026-04-24 23:40 49.47477 9.39305 25699 ft 425 kts 59°
2026-04-24 23:40 49.49091 9.43121 25947 ft 425 kts 48°
2026-04-24 23:41 49.51069 9.46415 26249 ft 424 kts 40°
2026-04-24 23:41 49.53255 9.49407 26518 ft 424 kts 37°
2026-04-24 23:41 49.55551 9.52311 26784 ft 426 kts 36°
2026-04-24 23:41 49.57850 9.55172 27051 ft 428 kts 36°
2026-04-24 23:42 49.60149 9.58065 27312 ft 430 kts 36°
2026-04-24 23:42 49.62450 9.60995 27552 ft 432 kts 36°
2026-04-24 23:42 49.64713 9.64057 27821 ft 435 kts 41°
2026-04-24 23:42 49.66732 9.67534 28005 ft 442 kts 51°
2026-04-24 23:43 49.68448 9.71522 28298 ft 444 kts 57°
2026-04-24 23:43 49.69978 9.75751 28465 ft 449 kts 62°
2026-04-24 23:43 49.71193 9.80229 28754 ft 451 kts 71°
2026-04-24 23:43 49.71925 9.84985 28972 ft 454 kts 81°
2026-04-24 23:44 49.72247 9.89825 29136 ft 458 kts 85°
2026-04-24 23:44 49.72515 9.94726 29136 ft 460 kts 82°
2026-04-24 23:44 49.74176 10.04106 29137 ft 453 kts 63°
2026-04-24 23:45 49.77635 10.12157 29139 ft 446 kts 43°